Location: Bühlhof
(48.7849°N, 8.6361°E)
Time: 06:53:26
(UTC+00:00)

GRACE-FO 1 - Pass Details

Date: 19 January 2026
Orbit: 447 x 461 km, 89.0° (Epoch: 19 February)

Event Time Altitude Azimuth Distance (km) Brightness Sun altitude
Rises 17:34:47 0° 4° (N) 2,507 8.0 -14.8°
Reaches altitude 10° 17:36:54 10° 9° (N) 1,627 7.0 -15.2°
Maximum altitude 17:40:22 53° 88° (E) 576 4.5 -15.7°
Drops below altitude 10° 17:43:48 10° 166° (SSE) 1,613 7.2 -16.3°
Sets 17:45:53 0° 171° (S) 2,482 8.2 -16.6°
